Find Starlink 32743

NORAD ID: 62480 Int'l Des: 2024-254 Owner: SPXS Country: US Constellation: starlink operational
LEOCIRCULAR

Live Position

Loading 3D Globe...

About Starlink 32743

Description loading...

Upcoming Passes

Passes for default location (London). Set your location on the main map for personalized predictions.

Altitude History

Loading altitude history...

Two-Line Element Set

1 62480U 24254U 26122.20902625 .00022291 00000-0 81699-3 0 9998
2 62480 43.0006 73.6401 0001285 283.2131 76.8578 15.27584420 75845
Epoch: May 2, 2026 • Age: 13 hours

Current Status

Altitude 483.2 km
Velocity 7.63 km/s
Sub-Earth Point 21.93°N, 91.27°E
Launch Date Dec 31, 2024
Age 1.3 years
Type internet

Technical Details

Classification Payload
Mass 730.00 kg
Dry Mass 700.00 kg
Total Mass 730.00 kg
Length 0.30 m
Diameter 4.10 m
Span 29.00 m
Shape Box + pan
Manufacturer SPXS
Bus Type Starlink V2M
Phase Status In Orbit
Owner/State SPXS/US

Most Searched